Time,TemperatureF,DewpointF,PressureIn,WindDirection,WindDirectionDegrees,WindSpeedMPH,WindSpeedGustMPH,Humidity,HourlyPrecipIn,Conditions,Clouds,dailyrainin,SoftwareType,DateUTC
2013-08-01 04:36:00,79.2,71.2,-100.00,East,89,3.0,5.0,77,0.00,,,0.00,meteohub,2013-08-01 09:36:00,
2013-08-01 04:37:00,79.2,71.2,-100.00,East,89,3.0,5.0,77,0.00,,,0.00,meteohub,2013-08-01 09:37:00,
2013-08-01 04:42:00,78.8,71.4,-100.00,East,89,2.0,5.0,78,0.00,,,0.00,meteohub,2013-08-01 09:42:00,
2013-08-01 04:43:00,78.8,71.4,-100.00,East,89,2.0,5.0,78,0.00,,,0.00,meteohub,2013-08-01 09:43:00,
2013-08-01 04:47:00,79.0,71.6,-100.00,East,89,3.0,5.0,78,0.00,,,0.00,meteohub,2013-08-01 09:47:00,
2013-08-01 04:48:00,79.0,71.6,-100.00,East,89,3.0,5.0,78,0.00,,,0.00,meteohub,2013-08-01 09:48:00,
2013-08-01 04:51:00,79.0,71.6,-100.00,East,89,3.0,5.0,78,0.00,,,0.00,meteohub,2013-08-01 09:51:00,
2013-08-01 04:53:00,79.0,71.6,-100.00,East,89,3.0,4.0,78,0.00,,,0.00,meteohub,2013-08-01 09:53:00,
2013-08-01 04:54:00,79.0,71.6,-100.00,East,89,3.0,4.0,78,0.00,,,0.00,meteohub,2013-08-01 09:54:00,
2013-08-01 04:56:00,79.0,71.6,-100.00,East,89,2.0,4.0,78,0.00,,,0.00,meteohub,2013-08-01 09:56:00,
2013-08-01 04:59:00,79.0,71.6,-100.00,East,89,2.0,5.0,78,0.00,,,0.00,meteohub,2013-08-01 09:59:00,
2013-08-01 05:00:00,78.8,71.4,-100.00,East,89,1.0,5.0,78,0.00,,,0.00,meteohub,2013-08-01 10:00:00,
2013-08-01 05:02:00,78.8,71.4,-100.00,East,89,1.0,5.0,78,0.00,,,0.00,meteohub,2013-08-01 10:02:00,
2013-08-01 05:04:00,78.8,71.4,-100.00,East,89,2.0,5.0,78,0.00,,,0.00,meteohub,2013-08-01 10:04:00,
2013-08-01 05:06:00,78.8,71.4,-100.00,East,89,2.0,5.0,78,0.00,,,0.00,meteohub,2013-08-01 10:06:00,
2013-08-01 05:07:00,78.8,71.4,-100.00,East,89,2.0,5.0,78,0.00,,,0.00,meteohub,2013-08-01 10:07:00,
2013-08-01 05:10:00,78.8,71.4,-100.00,East,89,2.0,5.0,78,0.00,,,0.00,meteohub,2013-08-01 10:10:00,
2013-08-01 05:13:00,78.8,71.4,-100.00,East,89,1.0,4.0,78,0.00,,,0.00,meteohub,2013-08-01 10:13:00,
2013-08-01 05:15:00,78.8,71.4,-100.00,East,89,1.0,4.0,78,0.00,,,0.00,meteohub,2013-08-01 10:15:00,
2013-08-01 05:18:00,78.6,71.2,-100.00,East,89,2.0,4.0,78,0.00,,,0.00,meteohub,2013-08-01 10:18:00,
2013-08-01 05:23:00,78.6,71.2,-100.00,East,89,3.0,4.0,78,0.00,,,0.00,meteohub,2013-08-01 10:23:00,
2013-08-01 05:28:00,78.6,71.2,-100.00,East,89,1.0,4.0,78,0.00,,,0.00,meteohub,2013-08-01 10:28:00,
2013-08-01 05:29:00,78.8,71.4,-100.00,East,89,3.0,4.0,78,0.00,,,0.00,meteohub,2013-08-01 10:29:00,
2013-08-01 05:33:00,78.8,71.4,-100.00,East,89,2.0,4.0,78,0.00,,,0.00,meteohub,2013-08-01 10:33:00,
2013-08-01 05:34:00,78.8,71.4,-100.00,East,89,3.0,4.0,78,0.00,,,0.00,meteohub,2013-08-01 10:34:00,
2013-08-01 05:38:00,78.8,71.4,-100.00,East,89,3.0,5.0,78,0.00,,,0.00,meteohub,2013-08-01 10:38:00,
2013-08-01 05:39:00,78.8,71.4,-100.00,East,89,2.0,5.0,78,0.00,,,0.00,meteohub,2013-08-01 10:39:00,
2013-08-01 05:56:00,78.6,71.2,-100.00,East,89,2.0,5.0,78,0.00,,,0.00,meteohub,2013-08-01 10:56:00,
2013-08-01 05:57:00,78.4,71.1,-100.00,East,89,0.0,5.0,78,0.00,,,0.00,meteohub,2013-08-01 10:57:00,
2013-08-01 06:01:00,78.4,71.1,-100.00,East,89,2.0,5.0,78,0.00,,,0.00,meteohub,2013-08-01 11:01:00,
2013-08-01 06:02:00,78.3,70.9,-100.00,East,89,2.0,5.0,78,0.00,,,0.00,meteohub,2013-08-01 11:02:00,
2013-08-01 06:03:00,78.3,70.9,-100.00,East,89,2.0,5.0,78,0.00,,,0.00,meteohub,2013-08-01 11:03:00,
2013-08-01 06:08:00,78.1,70.7,-100.00,East,89,2.0,5.0,78,0.00,,,0.00,meteohub,2013-08-01 11:08:00,
2013-08-01 06:14:00,77.9,70.9,-100.00,East,89,2.0,4.0,79,0.00,,,0.00,meteohub,2013-08-01 11:14:00,
2013-08-01 06:15:00,78.1,71.1,-100.00,East,89,2.0,4.0,79,0.00,,,0.00,meteohub,2013-08-01 11:15:00,
2013-08-01 06:17:00,78.1,70.7,-100.00,East,89,2.0,4.0,78,0.00,,,0.00,meteohub,2013-08-01 11:17:00,
2013-08-01 06:20:00,78.1,70.7,-100.00,East,89,2.0,4.0,78,0.00,,,0.00,meteohub,2013-08-01 11:20:00,
2013-08-01 06:22:00,78.1,70.7,-100.00,East,89,2.0,4.0,78,0.00,,,0.00,meteohub,2013-08-01 11:22:00,
2013-08-01 06:24:00,78.1,70.7,-100.00,East,89,4.0,4.0,78,0.00,,,0.00,meteohub,2013-08-01 11:24:00,
2013-08-01 06:25:00,78.1,70.7,-100.00,East,89,4.0,4.0,78,0.00,,,0.00,meteohub,2013-08-01 11:25:00,
2013-08-01 06:29:00,78.1,70.7,-100.00,East,89,4.0,4.0,78,0.00,,,0.00,meteohub,2013-08-01 11:29:00,
2013-08-01 06:30:00,77.9,70.5,-100.00,East,89,3.0,4.0,78,0.00,,,0.00,meteohub,2013-08-01 11:30:00,
2013-08-01 06:32:00,77.9,70.9,-100.00,East,89,2.0,5.0,79,0.00,,,0.00,meteohub,2013-08-01 11:32:00,
2013-08-01 06:34:00,77.9,70.5,-100.00,East,89,3.0,5.0,78,0.00,,,0.00,meteohub,2013-08-01 11:34:00,
2013-08-01 06:35:00,77.9,70.5,-100.00,East,89,4.0,5.0,78,0.00,,,0.00,meteohub,2013-08-01 11:35:00,
2013-08-01 06:38:00,77.9,70.9,-100.00,East,90,3.0,5.0,79,0.00,,,0.00,meteohub,2013-08-01 11:38:00,
2013-08-01 06:40:00,77.9,70.5,-100.00,East,91,4.0,5.0,78,0.00,,,0.00,meteohub,2013-08-01 11:40:00,
2013-08-01 06:41:00,77.9,70.9,-100.00,East,91,4.0,6.0,79,0.00,,,0.00,meteohub,2013-08-01 11:41:00,
2013-08-01 06:43:00,77.7,70.7,-100.00,East,91,3.0,6.0,79,0.00,,,0.00,meteohub,2013-08-01 11:43:00,
2013-08-01 06:47:00,77.7,70.7,-100.00,East,91,4.0,6.0,79,0.00,,,0.00,meteohub,2013-08-01 11:47:00,
2013-08-01 06:49:00,77.5,70.5,-100.00,East,91,2.0,6.0,79,0.00,,,0.00,meteohub,2013-08-01 11:49:00,
2013-08-01 06:52:00,77.4,70.3,-100.00,East,91,2.0,6.0,79,0.00,,,0.00,meteohub,2013-08-01 11:52:00,
2013-08-01 06:53:00,77.4,70.3,-100.00,East,91,2.0,6.0,79,0.00,,,0.00,meteohub,2013-08-01 11:53:00,
2013-08-01 06:55:00,77.4,70.3,-100.00,East,91,3.0,6.0,79,0.00,,,0.00,meteohub,2013-08-01 11:55:00,
2013-08-01 06:58:00,77.2,70.5,-100.00,East,91,3.0,6.0,80,0.00,,,0.00,meteohub,2013-08-01 11:58:00,
2013-08-01 07:00:00,77.2,70.5,-100.00,East,91,2.0,6.0,80,0.00,,,0.00,meteohub,2013-08-01 12:00:00,
2013-08-01 07:04:00,77.2,70.5,-100.00,East,91,1.0,4.0,80,0.00,,,0.00,meteohub,2013-08-01 12:04:00,
2013-08-01 07:06:00,77.2,70.5,-100.00,East,91,2.0,4.0,80,0.00,,,0.00,meteohub,2013-08-01 12:06:00,
2013-08-01 07:07:00,77.2,70.5,-100.00,East,91,2.0,4.0,80,0.00,,,0.00,meteohub,2013-08-01 12:07:00,
2013-08-01 07:10:00,77.4,70.3,-100.00,East,91,1.0,4.0,79,0.00,,,0.00,meteohub,2013-08-01 12:10:00,
2013-08-01 07:12:00,77.4,70.3,-100.00,East,91,0.0,4.0,79,0.00,,,0.00,meteohub,2013-08-01 12:12:00,
2013-08-01 07:17:00,77.4,70.3,-100.00,East,91,3.0,3.0,79,0.00,,,0.00,meteohub,2013-08-01 12:17:00,
2013-08-01 07:18:00,77.5,70.2,-100.00,East,91,3.0,3.0,78,0.00,,,0.00,meteohub,2013-08-01 12:18:00,
2013-08-01 07:23:00,77.7,70.3,-100.00,East,91,2.0,3.0,78,0.00,,,0.00,meteohub,2013-08-01 12:23:00,
2013-08-01 07:27:00,77.9,70.5,-100.00,East,91,3.0,3.0,78,0.00,,,0.00,meteohub,2013-08-01 12:27:00,
2013-08-01 07:28:00,77.9,70.5,-100.00,East,91,3.0,3.0,78,0.00,,,0.00,meteohub,2013-08-01 12:28:00,
2013-08-01 07:31:00,78.1,70.3,-100.00,East,91,2.0,3.0,77,0.00,,,0.00,meteohub,2013-08-01 12:31:00,
2013-08-01 07:33:00,78.3,70.5,-100.00,East,91,2.0,3.0,77,0.00,,,0.00,meteohub,2013-08-01 12:33:00,
2013-08-01 07:37:00,78.3,70.5,-100.00,East,91,1.0,3.0,77,0.00,,,0.00,meteohub,2013-08-01 12:37:00,
2013-08-01 07:38:00,78.3,70.5,-100.00,East,91,2.0,3.0,77,0.00,,,0.00,meteohub,2013-08-01 12:38:00,
2013-08-01 07:40:00,78.4,70.2,-100.00,East,91,1.0,3.0,76,0.00,,,0.00,meteohub,2013-08-01 12:40:00,
2013-08-01 07:43:00,78.4,70.2,-100.00,East,91,1.0,3.0,76,0.00,,,0.00,meteohub,2013-08-01 12:43:00,
2013-08-01 07:45:00,78.6,70.3,-100.00,East,91,2.0,3.0,76,0.00,,,0.00,meteohub,2013-08-01 12:45:00,
2013-08-01 07:49:00,78.8,70.5,-100.00,East,91,3.0,4.0,76,0.00,,,0.00,meteohub,2013-08-01 12:49:00,
2013-08-01 07:52:00,79.2,70.9,-100.00,East,91,1.0,4.0,76,0.00,,,0.00,meteohub,2013-08-01 12:52:00,
2013-08-01 07:54:00,79.3,70.7,-100.00,East,91,2.0,4.0,75,0.00,,,0.00,meteohub,2013-08-01 12:54:00,
2013-08-01 07:56:00,79.5,70.9,-100.00,East,91,4.0,4.0,75,0.00,,,0.00,meteohub,2013-08-01 12:56:00,
2013-08-01 07:58:00,79.9,71.2,-100.00,East,91,4.0,4.0,75,0.00,,,0.00,meteohub,2013-08-01 12:58:00,
2013-08-01 07:59:00,79.9,70.9,-100.00,East,91,3.0,4.0,74,0.00,,,0.00,meteohub,2013-08-01 12:59:00,
2013-08-01 08:02:00,80.1,71.1,-100.00,East,91,3.0,4.0,74,0.00,,,0.00,meteohub,2013-08-01 13:02:00,
2013-08-01 08:03:00,80.2,70.9,-100.00,East,91,4.0,4.0,73,0.00,,,0.00,meteohub,2013-08-01 13:03:00,
2013-08-01 08:05:00,80.4,70.5,-100.00,East,91,3.0,4.0,72,0.00,,,0.00,meteohub,2013-08-01 13:05:00,
2013-08-01 08:09:00,81.1,70.9,-100.00,East,91,3.0,5.0,71,0.00,,,0.00,meteohub,2013-08-01 13:09:00,
2013-08-01 08:10:00,81.3,70.2,-100.00,East,91,3.0,5.0,69,0.00,,,0.00,meteohub,2013-08-01 13:10:00,
2013-08-01 08:14:00,82.0,70.3,-100.00,East,92,4.0,5.0,68,0.00,,,0.00,meteohub,2013-08-01 13:14:00,
2013-08-01 08:15:00,82.2,70.2,-100.00,East,92,4.0,5.0,67,0.00,,,0.00,meteohub,2013-08-01 13:15:00,
2013-08-01 08:17:00,82.4,70.0,-100.00,East,98,5.0,5.0,66,0.00,,,0.00,meteohub,2013-08-01 13:17:00,
2013-08-01 08:21:00,82.8,70.2,-100.00,ESE,107,4.0,5.0,66,0.00,,,0.00,meteohub,2013-08-01 13:21:00,
2013-08-01 08:22:00,83.1,70.2,-100.00,ESE,113,1.0,6.0,65,0.00,,,0.00,meteohub,2013-08-01 13:22:00,
2013-08-01 08:23:00,83.1,70.2,-100.00,ESE,113,3.0,6.0,65,0.00,,,0.00,meteohub,2013-08-01 13:23:00,
2013-08-01 08:26:00,83.7,70.2,-100.00,ESE,123,5.0,6.0,64,0.00,,,0.00,meteohub,2013-08-01 13:26:00,
2013-08-01 08:28:00,84.0,70.0,-100.00,SE,134,6.0,6.0,63,0.00,,,0.00,meteohub,2013-08-01 13:28:00,
2013-08-01 08:29:00,84.0,70.0,-100.00,SE,138,5.0,6.0,63,0.00,,,0.00,meteohub,2013-08-01 13:29:00,
2013-08-01 08:32:00,84.0,69.6,-100.00,SSE,153,3.0,7.0,62,0.00,,,0.00,meteohub,2013-08-01 13:32:00,
2013-08-01 08:34:00,84.0,69.6,-100.00,SSE,153,2.0,7.0,62,0.00,,,0.00,meteohub,2013-08-01 13:34:00,
2013-08-01 08:35:00,84.4,70.0,-100.00,SSE,153,1.0,7.0,62,0.00,,,0.00,meteohub,2013-08-01 13:35:00,
2013-08-01 08:37:00,84.6,69.6,-100.00,SSE,157,2.0,7.0,61,0.00,,,0.00,meteohub,2013-08-01 13:37:00,
2013-08-01 08:40:00,84.7,69.3,-100.00,SSE,157,3.0,7.0,60,0.00,,,0.00,meteohub,2013-08-01 13:40:00,
2013-08-01 08:41:00,84.9,68.9,-100.00,SSE,157,3.0,7.0,59,0.00,,,0.00,meteohub,2013-08-01 13:41:00,
2013-08-01 08:43:00,85.1,69.1,-100.00,SSE,163,3.0,7.0,59,0.00,,,0.00,meteohub,2013-08-01 13:43:00,
2013-08-01 08:45:00,85.3,69.3,-100.00,South,173,3.0,7.0,59,0.00,,,0.00,meteohub,2013-08-01 13:45:00,
2013-08-01 08:47:00,85.3,69.3,-100.00,South,174,3.0,7.0,59,0.00,,,0.00,meteohub,2013-08-01 13:47:00,
2013-08-01 08:48:00,85.3,69.3,-100.00,South,174,3.0,7.0,59,0.00,,,0.00,meteohub,2013-08-01 13:48:00,
2013-08-01 08:52:00,85.6,69.1,-100.00,South,179,4.0,7.0,58,0.00,,,0.00,meteohub,2013-08-01 13:52:00,
2013-08-01 08:54:00,85.8,68.9,-100.00,South,179,3.0,7.0,57,0.00,,,0.00,meteohub,2013-08-01 13:54:00,
2013-08-01 08:57:00,86.4,69.3,-100.00,South,179,1.0,7.0,57,0.00,,,0.00,meteohub,2013-08-01 13:57:00,
2013-08-01 08:59:00,86.5,69.4,-100.00,South,179,2.0,7.0,57,0.00,,,0.00,meteohub,2013-08-01 13:59:00,
2013-08-01 09:02:00,87.1,68.9,-100.00,South,179,4.0,7.0,55,0.00,,,0.00,meteohub,2013-08-01 14:02:00,
2013-08-01 09:04:00,87.3,68.5,-100.00,South,179,3.0,7.0,54,0.00,,,0.00,meteohub,2013-08-01 14:04:00,
2013-08-01 09:05:00,87.3,69.1,-100.00,South,180,4.0,7.0,55,0.00,,,0.00,meteohub,2013-08-01 14:05:00,
2013-08-01 09:09:00,87.4,69.3,-100.00,South,182,3.0,6.0,55,0.00,,,0.00,meteohub,2013-08-01 14:09:00,
2013-08-01 09:11:00,87.4,68.7,-100.00,South,176,6.0,6.0,54,0.00,,,0.00,meteohub,2013-08-01 14:11:00,
2013-08-01 09:15:00,87.4,68.7,-100.00,South,172,1.0,6.0,54,0.00,,,0.00,meteohub,2013-08-01 14:15:00,
2013-08-01 09:17:00,87.6,68.4,-100.00,South,172,2.0,7.0,53,0.00,,,0.00,meteohub,2013-08-01 14:17:00,
2013-08-01 09:19:00,87.8,69.1,-100.00,South,172,3.0,7.0,54,0.00,,,0.00,meteohub,2013-08-01 14:19:00,
2013-08-01 09:21:00,88.0,68.7,-100.00,South,172,3.0,7.0,53,0.00,,,0.00,meteohub,2013-08-01 14:21:00,
2013-08-01 09:22:00,88.2,69.4,-100.00,South,172,4.0,7.0,54,0.00,,,0.00,meteohub,2013-08-01 14:22:00,
2013-08-01 09:25:00,88.2,68.4,-100.00,South,173,2.0,7.0,52,0.00,,,0.00,meteohub,2013-08-01 14:25:00,
2013-08-01 09:28:00,88.3,68.5,-100.00,South,177,2.0,7.0,52,0.00,,,0.00,meteohub,2013-08-01 14:28:00,
2013-08-01 09:29:00,88.5,69.3,-100.00,South,177,1.0,7.0,53,0.00,,,0.00,meteohub,2013-08-01 14:29:00,
2013-08-01 09:30:00,88.5,68.7,-100.00,South,177,1.0,7.0,52,0.00,,,0.00,meteohub,2013-08-01 14:30:00,
2013-08-01 09:34:00,88.5,69.3,-100.00,South,177,3.0,6.0,53,0.00,,,0.00,meteohub,2013-08-01 14:34:00,
2013-08-01 09:39:00,89.1,69.1,-100.00,South,177,3.0,6.0,52,0.00,,,0.00,meteohub,2013-08-01 14:39:00,
2013-08-01 09:43:00,89.4,67.8,-100.00,South,177,1.0,6.0,49,0.00,,,0.00,meteohub,2013-08-01 14:43:00,
2013-08-01 09:47:00,90.0,68.2,-100.00,South,178,3.0,5.0,49,0.00,,,0.00,meteohub,2013-08-01 14:47:00,
2013-08-01 09:49:00,90.1,68.4,-100.00,South,178,4.0,5.0,49,0.00,,,0.00,meteohub,2013-08-01 14:49:00,
2013-08-01 09:52:00,90.3,68.0,-100.00,South,178,1.0,5.0,48,0.00,,,0.00,meteohub,2013-08-01 14:52:00,
2013-08-01 09:55:00,90.7,68.9,-100.00,South,178,3.0,5.0,49,0.00,,,0.00,meteohub,2013-08-01 14:55:00,
2013-08-01 09:57:00,91.2,70.0,-100.00,South,180,3.0,5.0,50,0.00,,,0.00,meteohub,2013-08-01 14:57:00,
2013-08-01 10:00:00,91.2,68.2,-100.00,South,175,3.0,5.0,47,0.00,,,0.00,meteohub,2013-08-01 15:00:00,
2013-08-01 10:02:00,91.4,68.9,-100.00,South,177,1.0,6.0,48,0.00,,,0.00,meteohub,2013-08-01 15:02:00,
2013-08-01 10:03:00,91.4,67.6,-100.00,South,177,3.0,6.0,46,0.00,,,0.00,meteohub,2013-08-01 15:03:00,
2013-08-01 10:06:00,91.4,67.6,-100.00,South,177,3.0,6.0,46,0.00,,,0.00,meteohub,2013-08-01 15:06:00,
2013-08-01 10:07:00,91.6,67.8,-100.00,South,177,3.0,6.0,46,0.00,,,0.00,meteohub,2013-08-01 15:07:00,
2013-08-01 10:08:00,91.6,67.8,-100.00,South,177,2.0,6.0,46,0.00,,,0.00,meteohub,2013-08-01 15:08:00,
2013-08-01 10:12:00,91.8,69.3,-100.00,South,177,3.0,6.0,48,0.00,,,0.00,meteohub,2013-08-01 15:12:00,
2013-08-01 10:14:00,91.6,68.5,-100.00,South,177,3.0,6.0,47,0.00,,,0.00,meteohub,2013-08-01 15:14:00,
2013-08-01 10:15:00,91.6,67.8,-100.00,South,177,0.0,6.0,46,0.00,,,0.00,meteohub,2013-08-01 15:15:00,
2013-08-01 10:17:00,91.8,68.0,-100.00,South,177,1.0,4.0,46,0.00,,,0.00,meteohub,2013-08-01 15:17:00,
2013-08-01 10:20:00,91.8,69.3,-100.00,South,177,2.0,4.0,48,0.00,,,0.00,meteohub,2013-08-01 15:20:00,
2013-08-01 10:22:00,91.8,68.7,-100.00,South,176,3.0,4.0,47,0.00,,,0.00,meteohub,2013-08-01 15:22:00,
2013-08-01 10:27:00,92.1,68.4,-100.00,South,176,1.0,4.0,46,0.00,,,0.00,meteohub,2013-08-01 15:27:00,
2013-08-01 10:28:00,92.1,68.4,-100.00,South,176,0.0,4.0,46,0.00,,,0.00,meteohub,2013-08-01 15:28:00,
2013-08-01 10:32:00,92.5,68.0,-100.00,South,176,0.0,4.0,45,0.00,,,0.00,meteohub,2013-08-01 15:32:00,
2013-08-01 10:33:00,92.5,68.7,-100.00,South,176,0.0,4.0,46,0.00,,,0.00,meteohub,2013-08-01 15:33:00,
2013-08-01 10:38:00,92.7,68.9,-100.00,SSW,200,0.0,4.0,46,0.00,,,0.00,meteohub,2013-08-01 15:38:00,
2013-08-01 10:40:00,92.7,69.4,-100.00,SSW,200,2.0,4.0,47,0.00,,,0.00,meteohub,2013-08-01 15:40:00,
2013-08-01 10:43:00,92.8,69.1,-100.00,SSW,200,2.0,2.0,46,0.00,,,0.00,meteohub,2013-08-01 15:43:00,
2013-08-01 10:46:00,92.7,68.2,-100.00,SSW,192,2.0,4.0,45,0.00,,,0.00,meteohub,2013-08-01 15:46:00,
2013-08-01 10:49:00,91.8,68.0,-100.00,South,178,4.0,4.0,46,0.00,,,0.00,meteohub,2013-08-01 15:49:00,
2013-08-01 10:51:00,91.6,69.1,-100.00,South,175,4.0,4.0,48,0.00,,,0.00,meteohub,2013-08-01 15:51:00,
2013-08-01 10:54:00,91.4,68.9,-100.00,South,175,4.0,5.0,48,0.00,,,0.00,meteohub,2013-08-01 15:54:00,
2013-08-01 10:58:00,91.4,67.6,-100.00,South,171,1.0,5.0,46,0.00,,,0.00,meteohub,2013-08-01 15:58:00,
2013-08-01 11:01:00,91.4,68.9,-100.00,South,171,2.0,5.0,48,0.00,,,0.00,meteohub,2013-08-01 16:01:00,
2013-08-01 11:02:00,91.6,69.8,-100.00,South,171,2.0,5.0,49,0.00,,,0.00,meteohub,2013-08-01 16:02:00,
2013-08-01 11:05:00,91.6,69.1,-100.00,South,171,0.0,5.0,48,0.00,,,0.00,meteohub,2013-08-01 16:05:00,
2013-08-01 11:07:00,91.8,69.3,-100.00,South,171,2.0,5.0,48,0.00,,,0.00,meteohub,2013-08-01 16:07:00,
2013-08-01 11:11:00,92.1,68.9,-100.00,SSE,167,4.0,5.0,47,0.00,,,0.00,meteohub,2013-08-01 16:11:00,
2013-08-01 11:13:00,92.1,69.6,-100.00,SSE,167,4.0,5.0,48,0.00,,,0.00,meteohub,2013-08-01 16:13:00,
2013-08-01 11:17:00,92.3,68.5,-100.00,SSE,167,3.0,5.0,46,0.00,,,0.00,meteohub,2013-08-01 16:17:00,
2013-08-01 11:20:00,92.3,69.1,-100.00,SSE,154,4.0,5.0,47,0.00,,,0.00,meteohub,2013-08-01 16:20:00,
2013-08-01 11:23:00,92.7,68.2,-100.00,SSE,154,4.0,6.0,45,0.00,,,0.00,meteohub,2013-08-01 16:23:00,
2013-08-01 11:25:00,92.5,66.0,-100.00,SSE,154,3.0,6.0,42,0.00,,,0.00,meteohub,2013-08-01 16:25:00,
2013-08-01 11:26:00,92.5,65.3,-100.00,SSE,154,3.0,6.0,41,0.00,,,0.00,meteohub,2013-08-01 16:26:00,
2013-08-01 11:28:00,92.5,66.7,-100.00,SSE,154,4.0,6.0,43,0.00,,,0.00,meteohub,2013-08-01 16:28:00,
2013-08-01 11:31:00,92.5,66.0,-100.00,SSE,154,2.0,6.0,42,0.00,,,0.00,meteohub,2013-08-01 16:31:00,
2013-08-01 11:32:00,92.7,67.6,-100.00,SSE,154,2.0,6.0,44,0.00,,,0.00,meteohub,2013-08-01 16:32:00,
2013-08-01 11:34:00,92.8,68.4,-100.00,SSE,154,3.0,6.0,45,0.00,,,0.00,meteohub,2013-08-01 16:34:00,
2013-08-01 11:37:00,93.7,67.8,-100.00,SSE,154,2.0,5.0,43,0.00,,,0.00,meteohub,2013-08-01 16:37:00,
2013-08-01 11:39:00,94.3,68.4,-100.00,SSE,154,4.0,5.0,43,0.00,,,0.00,meteohub,2013-08-01 16:39:00,
2013-08-01 11:42:00,94.6,67.3,-100.00,SSE,154,0.0,5.0,41,0.00,,,0.00,meteohub,2013-08-01 16:42:00,
2013-08-01 11:46:00,95.4,68.0,-100.00,SSE,154,1.0,5.0,41,0.00,,,0.00,meteohub,2013-08-01 16:46:00,
2013-08-01 11:49:00,95.9,66.9,-100.00,SSE,154,2.0,5.0,39,0.00,,,0.00,meteohub,2013-08-01 16:49:00,
2013-08-01 11:51:00,95.5,67.3,-100.00,SSE,154,2.0,5.0,40,0.00,,,0.00,meteohub,2013-08-01 16:51:00,
2013-08-01 11:54:00,95.2,66.4,-100.00,SSE,154,0.0,5.0,39,0.00,,,0.00,meteohub,2013-08-01 16:54:00,
2013-08-01 11:57:00,95.2,66.4,-100.00,SSE,154,0.0,4.0,39,0.00,,,0.00,meteohub,2013-08-01 16:57:00,
2013-08-01 11:58:00,95.2,65.5,-100.00,SSE,154,2.0,4.0,38,0.00,,,0.00,meteohub,2013-08-01 16:58:00,
2013-08-01 12:00:00,95.2,67.1,-100.00,SSE,154,1.0,4.0,40,0.00,,,0.00,meteohub,2013-08-01 17:00:00,
2013-08-01 12:03:00,95.4,65.7,-100.00,SSE,154,0.0,4.0,38,0.00,,,0.00,meteohub,2013-08-01 17:03:00,
2013-08-01 12:04:00,95.4,65.7,-100.00,SSE,154,0.0,4.0,38,0.00,,,0.00,meteohub,2013-08-01 17:04:00,
2013-08-01 12:06:00,95.5,65.8,-100.00,SSE,154,1.0,4.0,38,0.00,,,0.00,meteohub,2013-08-01 17:06:00,
2013-08-01 12:09:00,95.9,66.2,-100.00,SSE,154,0.0,4.0,38,0.00,,,0.00,meteohub,2013-08-01 17:09:00,
2013-08-01 12:12:00,95.9,66.2,-100.00,SSE,154,1.0,4.0,38,0.00,,,0.00,meteohub,2013-08-01 17:12:00,
2013-08-01 12:14:00,95.9,68.4,-100.00,SSE,154,1.0,4.0,41,0.00,,,0.00,meteohub,2013-08-01 17:14:00,
2013-08-01 12:17:00,96.1,67.1,-100.00,SSE,154,0.0,4.0,39,0.00,,,0.00,meteohub,2013-08-01 17:17:00,
2013-08-01 12:19:00,96.1,67.8,-100.00,SSE,154,1.0,4.0,40,0.00,,,0.00,meteohub,2013-08-01 17:19:00,
2013-08-01 12:20:00,95.9,67.6,-100.00,SSE,154,3.0,4.0,40,0.00,,,0.00,meteohub,2013-08-01 17:20:00,
2013-08-01 12:23:00,95.4,65.7,-100.00,SSE,154,2.0,3.0,38,0.00,,,0.00,meteohub,2013-08-01 17:23:00,
2013-08-01 12:25:00,95.4,68.5,-100.00,SSE,154,1.0,3.0,42,0.00,,,0.00,meteohub,2013-08-01 17:25:00,
2013-08-01 12:26:00,95.5,67.3,-100.00,SSE,154,3.0,3.0,40,0.00,,,0.00,meteohub,2013-08-01 17:26:00,
2013-08-01 12:30:00,95.5,66.6,-100.00,SSE,154,1.0,3.0,39,0.00,,,0.00,meteohub,2013-08-01 17:30:00,
2013-08-01 12:34:00,95.5,67.3,-100.00,SE,138,3.0,3.0,40,0.00,,,0.00,meteohub,2013-08-01 17:34:00,
2013-08-01 12:36:00,95.4,67.3,-100.00,SE,138,1.0,7.0,40,0.00,,,0.00,meteohub,2013-08-01 17:36:00,
2013-08-01 12:37:00,95.4,67.3,-100.00,SE,138,2.0,7.0,40,0.00,,,0.00,meteohub,2013-08-01 17:37:00,
2013-08-01 12:40:00,95.4,65.7,-100.00,SE,138,2.0,7.0,38,0.00,,,0.00,meteohub,2013-08-01 17:40:00,
2013-08-01 12:41:00,95.4,68.0,-100.00,SE,138,0.0,7.0,41,0.00,,,0.00,meteohub,2013-08-01 17:41:00,
2013-08-01 12:42:00,95.5,70.2,-100.00,SE,138,0.0,7.0,44,0.00,,,0.00,meteohub,2013-08-01 17:42:00,
2013-08-01 12:47:00,96.3,68.0,-100.00,SSE,156,4.0,7.0,40,0.00,,,0.00,meteohub,2013-08-01 17:47:00,
2013-08-01 12:52:00,97.3,67.5,-100.00,SSW,203,4.0,10.0,38,0.00,,,0.00,meteohub,2013-08-01 17:52:00,
2013-08-01 12:56:00,97.3,67.5,-100.00,SW,223,0.0,10.0,38,0.00,,,0.00,meteohub,2013-08-01 17:56:00,
2013-08-01 12:59:00,97.3,67.5,-100.00,SW,223,1.0,10.0,38,0.00,,,0.00,meteohub,2013-08-01 17:59:00,
2013-08-01 13:02:00,97.9,66.4,-100.00,SSW,202,3.0,7.0,36,0.00,,,0.00,meteohub,2013-08-01 18:02:00,
2013-08-01 13:04:00,98.1,65.7,-100.00,SSW,202,1.0,7.0,35,0.00,,,0.00,meteohub,2013-08-01 18:04:00,
2013-08-01 13:05:00,98.1,65.7,-100.00,SSW,202,2.0,7.0,35,0.00,,,0.00,meteohub,2013-08-01 18:05:00,
2013-08-01 13:08:00,98.1,66.6,-100.00,SSW,195,7.0,7.0,36,0.00,,,0.00,meteohub,2013-08-01 18:08:00,
2013-08-01 13:09:00,98.1,67.3,-100.00,SSW,195,5.0,7.0,37,0.00,,,0.00,meteohub,2013-08-01 18:09:00,
2013-08-01 13:10:00,98.2,66.7,-100.00,SSW,195,5.0,7.0,36,0.00,,,0.00,meteohub,2013-08-01 18:10:00,
2013-08-01 13:13:00,98.4,66.0,-100.00,SSW,196,8.0,8.0,35,0.00,,,0.00,meteohub,2013-08-01 18:13:00,
2013-08-01 13:14:00,98.4,66.0,-100.00,SSW,196,3.0,7.0,35,0.00,,,0.00,meteohub,2013-08-01 18:14:00,
2013-08-01 13:17:00,98.4,66.0,-100.00,SSW,202,3.0,9.0,35,0.00,,,0.00,meteohub,2013-08-01 18:17:00,
2013-08-01 13:18:00,98.4,68.4,-100.00,SSW,203,2.0,9.0,38,0.00,,,0.00,meteohub,2013-08-01 18:18:00,
2013-08-01 13:19:00,98.2,67.5,-100.00,SSW,199,3.0,9.0,37,0.00,,,0.00,meteohub,2013-08-01 18:19:00,
2013-08-01 13:23:00,97.5,66.0,-100.00,SSW,198,0.0,9.0,36,0.00,,,0.00,meteohub,2013-08-01 18:23:00,
2013-08-01 13:26:00,97.3,68.9,-100.00,SSW,198,3.0,9.0,40,0.00,,,0.00,meteohub,2013-08-01 18:26:00,
2013-08-01 13:29:00,97.3,67.5,-100.00,SSW,193,2.0,9.0,38,0.00,,,0.00,meteohub,2013-08-01 18:29:00,
2013-08-01 13:31:00,97.2,66.6,-100.00,SSW,193,4.0,6.0,37,0.00,,,0.00,meteohub,2013-08-01 18:31:00,
2013-08-01 13:34:00,97.2,68.0,-100.00,NNW,345,4.0,6.0,39,0.00,,,0.00,meteohub,2013-08-01 18:34:00,
2013-08-01 13:35:00,97.2,66.6,-100.00,NNW,345,2.0,6.0,37,0.00,,,0.00,meteohub,2013-08-01 18:35:00,
2013-08-01 13:38:00,97.3,69.6,-100.00,NNW,345,0.0,10.0,41,0.00,,,0.00,meteohub,2013-08-01 18:38:00,
2013-08-01 13:39:00,97.5,69.1,-100.00,NNW,344,1.0,10.0,40,0.00,,,0.00,meteohub,2013-08-01 18:39:00,
2013-08-01 13:44:00,98.2,66.7,-100.00,NW,305,3.0,10.0,36,0.00,,,0.00,meteohub,2013-08-01 18:44:00,
2013-08-01 13:45:00,98.2,66.7,-100.00,NW,305,1.0,10.0,36,0.00,,,0.00,meteohub,2013-08-01 18:45:00,
2013-08-01 13:49:00,99.0,66.6,-100.00,WNW,284,2.0,10.0,35,0.00,,,0.00,meteohub,2013-08-01 18:49:00,
2013-08-01 13:50:00,99.0,66.6,-100.00,WNW,284,2.0,10.0,35,0.00,,,0.00,meteohub,2013-08-01 18:50:00,
2013-08-01 13:52:00,99.0,67.3,-100.00,WNW,284,0.0,6.0,36,0.00,,,0.00,meteohub,2013-08-01 18:52:00,
2013-08-01 13:55:00,99.0,66.6,-100.00,WNW,284,2.0,6.0,35,0.00,,,0.00,meteohub,2013-08-01 18:55:00,
2013-08-01 13:58:00,98.4,66.0,-100.00,NNE,32,4.0,6.0,35,0.00,,,0.00,meteohub,2013-08-01 18:58:00,
2013-08-01 14:00:00,98.4,69.3,-100.00,NNE,31,3.0,6.0,39,0.00,,,0.00,meteohub,2013-08-01 19:00:00,
2013-08-01 14:06:00,98.2,66.7,-100.00,NE,43,2.0,6.0,36,0.00,,,0.00,meteohub,2013-08-01 19:06:00,
2013-08-01 14:07:00,98.2,65.8,-100.00,NE,43,0.0,6.0,35,0.00,,,0.00,meteohub,2013-08-01 19:07:00,
2013-08-01 14:08:00,98.2,67.5,-100.00,NE,44,3.0,6.0,37,0.00,,,0.00,meteohub,2013-08-01 19:08:00,
2013-08-01 14:11:00,98.4,66.9,-100.00,NNE,13,5.0,6.0,36,0.00,,,0.00,meteohub,2013-08-01 19:11:00,
2013-08-01 14:13:00,98.8,68.7,-100.00,North,350,2.0,6.0,38,0.00,,,0.00,meteohub,2013-08-01 19:13:00,
2013-08-01 14:16:00,99.1,68.4,-100.00,North,350,5.0,7.0,37,0.00,,,0.00,meteohub,2013-08-01 19:16:00,
2013-08-01 14:17:00,99.1,68.4,-100.00,North,351,4.0,7.0,37,0.00,,,0.00,meteohub,2013-08-01 19:17:00,
2013-08-01 14:19:00,99.0,67.3,-100.00,North,355,3.0,7.0,36,0.00,,,0.00,meteohub,2013-08-01 19:19:00,
2013-08-01 14:22:00,98.8,65.5,-100.00,North,355,0.0,7.0,34,0.00,,,0.00,meteohub,2013-08-01 19:22:00,
2013-08-01 14:24:00,98.8,65.5,-100.00,North,355,0.0,7.0,34,0.00,,,0.00,meteohub,2013-08-01 19:24:00,
2013-08-01 14:27:00,99.0,66.6,-100.00,North,355,0.0,7.0,35,0.00,,,0.00,meteohub,2013-08-01 19:27:00,
2013-08-01 14:29:00,99.0,66.6,-100.00,North,355,2.0,7.0,35,0.00,,,0.00,meteohub,2013-08-01 19:29:00,
2013-08-01 14:32:00,99.3,67.6,-100.00,NW,314,3.0,6.0,36,0.00,,,0.00,meteohub,2013-08-01 19:32:00,
2013-08-01 14:33:00,99.3,67.6,-100.00,NW,314,3.0,6.0,36,0.00,,,0.00,meteohub,2013-08-01 19:33:00,
2013-08-01 14:35:00,99.9,68.2,-100.00,NW,314,4.0,6.0,36,0.00,,,0.00,meteohub,2013-08-01 19:35:00,
2013-08-01 14:37:00,100.2,65.8,-100.00,NW,314,1.0,7.0,33,0.00,,,0.00,meteohub,2013-08-01 19:37:00,
2013-08-01 14:39:00,100.4,67.8,-100.00,NW,315,3.0,7.0,35,0.00,,,0.00,meteohub,2013-08-01 19:39:00,
2013-08-01 14:42:00,100.4,66.0,-100.00,NW,317,3.0,7.0,33,0.00,,,0.00,meteohub,2013-08-01 19:42:00,
2013-08-01 14:44:00,100.8,68.2,-100.00,NW,317,0.0,7.0,35,0.00,,,0.00,meteohub,2013-08-01 19:44:00,
2013-08-01 14:48:00,100.8,65.5,-100.00,NW,317,0.0,7.0,32,0.00,,,0.00,meteohub,2013-08-01 19:48:00,
2013-08-01 14:51:00,100.2,67.6,-100.00,NW,322,5.0,5.0,35,0.00,,,0.00,meteohub,2013-08-01 19:51:00,
2013-08-01 14:53:00,100.2,66.7,-100.00,NW,304,6.0,6.0,34,0.00,,,0.00,meteohub,2013-08-01 19:53:00,
2013-08-01 14:57:00,99.7,65.5,-100.00,SSE,148,9.0,10.0,33,0.00,,,0.00,meteohub,2013-08-01 19:57:00,
2013-08-01 15:00:00,99.9,66.4,-100.00,SE,142,5.0,10.0,34,0.00,,,0.00,meteohub,2013-08-01 20:00:00,
2013-08-01 15:02:00,99.9,64.8,-100.00,SSE,147,5.0,12.0,32,0.00,,,0.00,meteohub,2013-08-01 20:02:00,
2013-08-01 15:04:00,99.9,66.4,-100.00,SSE,147,2.0,12.0,34,0.00,,,0.00,meteohub,2013-08-01 20:04:00,
2013-08-01 15:05:00,99.9,63.9,-100.00,SE,140,3.0,12.0,31,0.00,,,0.00,meteohub,2013-08-01 20:05:00,
2013-08-01 15:07:00,99.9,65.7,-100.00,SE,140,0.0,12.0,33,0.00,,,0.00,meteohub,2013-08-01 20:07:00,
2013-08-01 15:09:00,100.2,65.8,-100.00,SE,140,0.0,12.0,33,0.00,,,0.00,meteohub,2013-08-01 20:09:00,
2013-08-01 15:12:00,100.4,64.2,-100.00,SE,140,1.0,12.0,31,0.00,,,0.00,meteohub,2013-08-01 20:12:00,
2013-08-01 15:13:00,100.4,64.2,-100.00,SE,140,1.0,12.0,31,0.00,,,0.00,meteohub,2013-08-01 20:13:00,
2013-08-01 15:14:00,100.4,64.2,-100.00,SE,139,2.0,12.0,31,0.00,,,0.00,meteohub,2013-08-01 20:14:00,
2013-08-01 15:17:00,100.8,65.5,-100.00,SE,139,3.0,7.0,32,0.00,,,0.00,meteohub,2013-08-01 20:17:00,
2013-08-01 15:18:00,100.8,67.3,-100.00,SE,139,1.0,7.0,34,0.00,,,0.00,meteohub,2013-08-01 20:18:00,
2013-08-01 15:19:00,100.9,63.9,-100.00,SE,139,1.0,7.0,30,0.00,,,0.00,meteohub,2013-08-01 20:19:00,
2013-08-01 15:23:00,101.5,66.9,-100.00,SE,139,2.0,4.0,33,0.00,,,0.00,meteohub,2013-08-01 20:23:00,
2013-08-01 15:24:00,102.0,65.7,-100.00,SE,139,2.0,4.0,31,0.00,,,0.00,meteohub,2013-08-01 20:24:00,
2013-08-01 15:28:00,101.7,63.5,-100.00,SE,139,2.0,4.0,29,0.00,,,0.00,meteohub,2013-08-01 20:28:00,
2013-08-01 15:30:00,101.7,64.4,-100.00,SE,138,3.0,4.0,30,0.00,,,0.00,meteohub,2013-08-01 20:30:00,
2013-08-01 15:35:00,101.1,67.6,-100.00,ESE,107,6.0,6.0,34,0.00,,,0.00,meteohub,2013-08-01 20:35:00,
2013-08-01 15:37:00,100.4,66.0,-100.00,East,100,4.0,12.0,33,0.00,,,0.00,meteohub,2013-08-01 20:37:00,
2013-08-01 15:40:00,99.7,66.4,-100.00,ESE,105,3.0,12.0,34,0.00,,,0.00,meteohub,2013-08-01 20:40:00,
2013-08-01 15:42:00,99.3,66.9,-100.00,ESE,116,3.0,12.0,35,0.00,,,0.00,meteohub,2013-08-01 20:42:00,
2013-08-01 15:43:00,99.1,65.8,-100.00,ESE,115,6.0,12.0,34,0.00,,,0.00,meteohub,2013-08-01 20:43:00,
2013-08-01 15:45:00,99.0,65.7,-100.00,ESE,117,5.0,12.0,34,0.00,,,0.00,meteohub,2013-08-01 20:45:00,
2013-08-01 15:47:00,98.4,66.0,-100.00,ESE,123,5.0,12.0,35,0.00,,,0.00,meteohub,2013-08-01 20:47:00,
2013-08-01 15:50:00,98.2,66.7,-100.00,SE,129,4.0,12.0,36,0.00,,,0.00,meteohub,2013-08-01 20:50:00,
2013-08-01 15:53:00,98.2,66.7,-100.00,SE,128,5.0,10.0,36,0.00,,,0.00,meteohub,2013-08-01 20:53:00,
2013-08-01 15:54:00,98.1,65.7,-100.00,SE,128,2.0,10.0,35,0.00,,,0.00,meteohub,2013-08-01 20:54:00,
2013-08-01 15:55:00,98.1,65.7,-100.00,SE,128,4.0,10.0,35,0.00,,,0.00,meteohub,2013-08-01 20:55:00,
2013-08-01 15:56:00,98.1,66.6,-100.00,SE,127,5.0,11.0,36,0.00,,,0.00,meteohub,2013-08-01 20:56:00,
2013-08-01 15:59:00,97.9,66.4,-100.00,ESE,117,4.0,11.0,36,0.00,,,0.00,meteohub,2013-08-01 20:59:00,
2013-08-01 16:00:00,97.9,65.7,-100.00,ESE,117,3.0,11.0,35,0.00,,,0.00,meteohub,2013-08-01 21:00:00,
2013-08-01 16:01:00,97.5,65.3,-100.00,ESE,117,4.0,11.0,35,0.00,,,0.00,meteohub,2013-08-01 21:01:00,
2013-08-01 16:06:00,97.5,65.3,-100.00,ESE,117,2.0,7.0,35,0.00,,,0.00,meteohub,2013-08-01 21:06:00,
2013-08-01 16:07:00,97.9,65.7,-100.00,ESE,117,1.0,7.0,35,0.00,,,0.00,meteohub,2013-08-01 21:07:00,
2013-08-01 16:09:00,97.9,64.8,-100.00,ESE,117,0.0,7.0,34,0.00,,,0.00,meteohub,2013-08-01 21:09:00,
2013-08-01 16:12:00,97.9,65.7,-100.00,ESE,117,0.0,7.0,35,0.00,,,0.00,meteohub,2013-08-01 21:12:00,
2013-08-01 16:13:00,98.1,66.6,-100.00,ESE,117,0.0,7.0,36,0.00,,,0.00,meteohub,2013-08-01 21:13:00,
2013-08-01 16:14:00,98.1,64.9,-100.00,ESE,117,0.0,7.0,34,0.00,,,0.00,meteohub,2013-08-01 21:14:00,
2013-08-01 16:15:00,98.2,66.7,-100.00,ESE,117,2.0,7.0,36,0.00,,,0.00,meteohub,2013-08-01 21:15:00,
2013-08-01 16:18:00,98.8,66.4,-100.00,ESE,115,4.0,5.0,35,0.00,,,0.00,meteohub,2013-08-01 21:18:00,
2013-08-01 16:20:00,99.1,67.5,-100.00,ESE,116,3.0,7.0,36,0.00,,,0.00,meteohub,2013-08-01 21:20:00,
2013-08-01 16:25:00,100.2,67.6,-100.00,ESE,115,4.0,7.0,35,0.00,,,0.00,meteohub,2013-08-01 21:25:00,
2013-08-01 16:26:00,100.2,67.6,-100.00,ESE,110,5.0,7.0,35,0.00,,,0.00,meteohub,2013-08-01 21:26:00,
2013-08-01 16:30:00,99.9,64.8,-100.00,ESE,109,3.0,7.0,32,0.00,,,0.00,meteohub,2013-08-01 21:30:00,
2013-08-01 16:31:00,99.9,64.8,-100.00,ESE,109,3.0,7.0,32,0.00,,,0.00,meteohub,2013-08-01 21:31:00,
2013-08-01 16:32:00,99.9,66.4,-100.00,ESE,109,2.0,7.0,34,0.00,,,0.00,meteohub,2013-08-01 21:32:00,
2013-08-01 16:35:00,100.2,64.9,-100.00,ESE,109,1.0,7.0,32,0.00,,,0.00,meteohub,2013-08-01 21:35:00,
2013-08-01 16:36:00,100.2,64.9,-100.00,ESE,109,4.0,7.0,32,0.00,,,0.00,meteohub,2013-08-01 21:36:00,
2013-08-01 16:38:00,100.2,65.8,-100.00,ESE,109,1.0,7.0,33,0.00,,,0.00,meteohub,2013-08-01 21:38:00,
2013-08-01 16:42:00,100.4,64.2,-100.00,ESE,109,0.0,7.0,31,0.00,,,0.00,meteohub,2013-08-01 21:42:00,
2013-08-01 16:43:00,100.8,64.6,-100.00,ESE,109,3.0,7.0,31,0.00,,,0.00,meteohub,2013-08-01 21:43:00,
2013-08-01 16:47:00,100.9,63.9,-100.00,ESE,109,0.0,5.0,30,0.00,,,0.00,meteohub,2013-08-01 21:47:00,
2013-08-01 16:49:00,100.9,64.8,-100.00,ESE,109,1.0,5.0,31,0.00,,,0.00,meteohub,2013-08-01 21:49:00,
2013-08-01 16:52:00,101.1,64.9,-100.00,ESE,109,1.0,4.0,31,0.00,,,0.00,meteohub,2013-08-01 21:52:00,
2013-08-01 16:53:00,101.1,65.8,-100.00,ESE,109,2.0,4.0,32,0.00,,,0.00,meteohub,2013-08-01 21:53:00,
2013-08-01 16:54:00,101.1,65.8,-100.00,ESE,109,2.0,4.0,32,0.00,,,0.00,meteohub,2013-08-01 21:54:00,
2013-08-01 16:57:00,101.1,64.9,-100.00,ESE,109,5.0,5.0,31,0.00,,,0.00,meteohub,2013-08-01 21:57:00,
2013-08-01 16:58:00,100.9,64.8,-100.00,ESE,109,4.0,4.0,31,0.00,,,0.00,meteohub,2013-08-01 21:58:00,
2013-08-01 16:59:00,100.9,64.8,-100.00,ESE,109,4.0,4.0,31,0.00,,,0.00,meteohub,2013-08-01 21:59:00,
2013-08-01 17:03:00,100.4,67.8,-100.00,East,96,8.0,8.0,35,0.00,,,0.00,meteohub,2013-08-01 22:03:00,
2013-08-01 17:04:00,100.4,66.9,-100.00,East,98,8.0,8.0,34,0.00,,,0.00,meteohub,2013-08-01 22:04:00,
2013-08-01 17:05:00,100.2,66.7,-100.00,ESE,110,7.0,7.0,34,0.00,,,0.00,meteohub,2013-08-01 22:05:00,
2013-08-01 17:09:00,99.9,66.4,-100.00,ESE,114,7.0,9.0,34,0.00,,,0.00,meteohub,2013-08-01 22:09:00,
2013-08-01 17:11:00,99.9,67.3,-100.00,ESE,108,4.0,9.0,35,0.00,,,0.00,meteohub,2013-08-01 22:11:00,
2013-08-01 17:12:00,99.3,66.0,-100.00,ESE,107,1.0,10.0,34,0.00,,,0.00,meteohub,2013-08-01 22:12:00,
2013-08-01 17:15:00,99.0,64.8,-100.00,ESE,107,3.0,10.0,33,0.00,,,0.00,meteohub,2013-08-01 22:15:00,
2013-08-01 17:17:00,98.8,66.4,-100.00,ESE,107,3.0,10.0,35,0.00,,,0.00,meteohub,2013-08-01 22:17:00,
2013-08-01 17:22:00,98.2,65.8,-100.00,ESE,106,2.0,10.0,35,0.00,,,0.00,meteohub,2013-08-01 22:22:00,
2013-08-01 17:23:00,98.2,66.7,-100.00,ESE,106,4.0,10.0,36,0.00,,,0.00,meteohub,2013-08-01 22:23:00,
2013-08-01 17:27:00,98.1,65.7,-100.00,ESE,106,1.0,6.0,35,0.00,,,0.00,meteohub,2013-08-01 22:27:00,
2013-08-01 17:28:00,98.1,66.6,-100.00,ESE,106,2.0,6.0,36,0.00,,,0.00,meteohub,2013-08-01 22:28:00,
2013-08-01 17:29:00,98.1,66.6,-100.00,ESE,106,3.0,6.0,36,0.00,,,0.00,meteohub,2013-08-01 22:29:00,
2013-08-01 17:32:00,97.9,67.1,-100.00,ESE,106,2.0,6.0,37,0.00,,,0.00,meteohub,2013-08-01 22:32:00,
2013-08-01 17:34:00,97.9,68.0,-100.00,ESE,106,3.0,6.0,38,0.00,,,0.00,meteohub,2013-08-01 22:34:00,
2013-08-01 17:35:00,97.9,67.1,-100.00,ESE,106,4.0,6.0,37,0.00,,,0.00,meteohub,2013-08-01 22:35:00,
2013-08-01 17:38:00,97.5,67.6,-100.00,ESE,107,6.0,6.0,38,0.00,,,0.00,meteohub,2013-08-01 22:38:00,
2013-08-01 17:40:00,97.5,67.6,-100.00,ESE,108,4.0,5.0,38,0.00,,,0.00,meteohub,2013-08-01 22:40:00,
2013-08-01 17:41:00,97.5,67.6,-100.00,ESE,108,4.0,5.0,38,0.00,,,0.00,meteohub,2013-08-01 22:41:00,
2013-08-01 17:42:00,97.5,67.6,-100.00,ESE,108,4.0,5.0,38,0.00,,,0.00,meteohub,2013-08-01 22:42:00,
2013-08-01 17:44:00,97.5,67.6,-100.00,ESE,108,3.0,5.0,38,0.00,,,0.00,meteohub,2013-08-01 22:44:00,
2013-08-01 17:47:00,97.5,67.6,-100.00,SE,128,4.0,6.0,38,0.00,,,0.00,meteohub,2013-08-01 22:47:00,
2013-08-01 17:50:00,97.5,67.6,-100.00,SE,127,6.0,8.0,38,0.00,,,0.00,meteohub,2013-08-01 22:50:00,
2013-08-01 17:52:00,97.5,68.4,-100.00,SE,128,3.0,8.0,39,0.00,,,0.00,meteohub,2013-08-01 22:52:00,
2013-08-01 17:57:00,97.9,68.0,-100.00,ESE,120,11.0,11.0,38,0.00,,,0.00,meteohub,2013-08-01 22:57:00,
2013-08-01 18:03:00,98.2,68.2,-100.00,ESE,113,4.0,11.0,38,0.00,,,0.00,meteohub,2013-08-01 23:03:00,
2013-08-01 18:08:00,98.2,67.5,-100.00,ESE,116,5.0,11.0,37,0.00,,,0.00,meteohub,2013-08-01 23:08:00,
2013-08-01 18:09:00,98.4,66.9,-100.00,ESE,116,5.0,11.0,36,0.00,,,0.00,meteohub,2013-08-01 23:09:00,
2013-08-01 18:10:00,98.4,66.9,-100.00,ESE,117,5.0,11.0,36,0.00,,,0.00,meteohub,2013-08-01 23:10:00,
2013-08-01 18:13:00,98.8,67.1,-100.00,ESE,117,2.0,11.0,36,0.00,,,0.00,meteohub,2013-08-01 23:13:00,
2013-08-01 18:14:00,98.8,67.1,-100.00,ESE,117,4.0,11.0,36,0.00,,,0.00,meteohub,2013-08-01 23:14:00,
2013-08-01 18:16:00,98.8,66.4,-100.00,ESE,117,2.0,7.0,35,0.00,,,0.00,meteohub,2013-08-01 23:16:00,
2013-08-01 18:19:00,98.4,66.0,-100.00,ESE,117,3.0,7.0,35,0.00,,,0.00,meteohub,2013-08-01 23:19:00,
2013-08-01 18:20:00,98.4,66.9,-100.00,ESE,113,5.0,7.0,36,0.00,,,0.00,meteohub,2013-08-01 23:20:00,
2013-08-01 18:22:00,98.8,68.0,-100.00,ESE,117,7.0,7.0,37,0.00,,,0.00,meteohub,2013-08-01 23:22:00,
2013-08-01 18:25:00,98.4,66.0,-100.00,ESE,117,6.0,9.0,35,0.00,,,0.00,meteohub,2013-08-01 23:25:00,
2013-08-01 18:27:00,98.2,66.7,-100.00,ESE,112,4.0,9.0,36,0.00,,,0.00,meteohub,2013-08-01 23:27:00,
2013-08-01 18:30:00,98.2,66.7,-100.00,East,99,4.0,9.0,36,0.00,,,0.00,meteohub,2013-08-01 23:30:00,
2013-08-01 18:32:00,98.1,66.6,-100.00,East,98,6.0,9.0,36,0.00,,,0.00,meteohub,2013-08-01 23:32:00,
2013-08-01 18:36:00,97.9,67.1,-100.00,East,91,5.0,9.0,37,0.00,,,0.00,meteohub,2013-08-01 23:36:00,
2013-08-01 18:37:00,97.9,66.4,-100.00,ESE,102,7.0,9.0,36,0.00,,,0.00,meteohub,2013-08-01 23:37:00,
2013-08-01 18:38:00,97.9,67.1,-100.00,ESE,107,10.0,10.0,37,0.00,,,0.00,meteohub,2013-08-01 23:38:00,
2013-08-01 18:41:00,97.3,65.8,-100.00,East,90,7.0,12.0,36,0.00,,,0.00,meteohub,2013-08-01 23:41:00,
2013-08-01 18:42:00,97.3,65.8,-100.00,East,90,3.0,12.0,36,0.00,,,0.00,meteohub,2013-08-01 23:42:00,
2013-08-01 18:43:00,97.3,66.7,-100.00,East,90,3.0,12.0,37,0.00,,,0.00,meteohub,2013-08-01 23:43:00,
2013-08-01 18:44:00,97.3,67.5,-100.00,East,90,3.0,12.0,38,0.00,,,0.00,meteohub,2013-08-01 23:44:00,
2013-08-01 18:47:00,97.3,66.7,-100.00,East,97,5.0,13.0,37,0.00,,,0.00,meteohub,2013-08-01 23:47:00,
2013-08-01 18:49:00,97.3,66.7,-100.00,East,94,10.0,13.0,37,0.00,,,0.00,meteohub,2013-08-01 23:49:00,
2013-08-01 18:52:00,97.2,66.6,-100.00,East,89,8.0,13.0,37,0.00,,,0.00,meteohub,2013-08-01 23:52:00,
2013-08-01 18:53:00,97.2,66.6,-100.00,East,83,4.0,13.0,37,0.00,,,0.00,meteohub,2013-08-01 23:53:00,
2013-08-01 18:54:00,97.2,66.6,-100.00,East,90,5.0,13.0,37,0.00,,,0.00,meteohub,2013-08-01 23:54:00,
2013-08-01 18:57:00,97.2,67.3,-100.00,East,89,4.0,12.0,38,0.00,,,0.00,meteohub,2013-08-01 23:57:00,
2013-08-01 18:59:00,97.2,67.3,-100.00,ESE,102,5.0,12.0,38,0.00,,,0.00,meteohub,2013-08-01 23:59:00,
2013-08-01 19:00:00,97.2,67.3,-100.00,ESE,103,9.0,11.0,38,0.00,,,0.00,meteohub,2013-08-02 00:00:00,
2013-08-01 19:03:00,96.8,66.9,-100.00,East,99,5.0,11.0,38,0.00,,,0.00,meteohub,2013-08-02 00:03:00,
2013-08-01 19:05:00,96.8,66.9,-100.00,East,100,5.0,11.0,38,0.00,,,0.00,meteohub,2013-08-02 00:05:00,
2013-08-01 19:07:00,96.8,66.9,-100.00,East,101,4.0,10.0,38,0.00,,,0.00,meteohub,2013-08-02 00:07:00,
2013-08-01 19:08:00,96.8,67.8,-100.00,ESE,104,4.0,10.0,39,0.00,,,0.00,meteohub,2013-08-02 00:08:00,
2013-08-01 19:11:00,96.6,67.6,-100.00,ESE,107,4.0,10.0,39,0.00,,,0.00,meteohub,2013-08-02 00:11:00,
2013-08-01 19:14:00,96.6,67.6,-100.00,ESE,103,6.0,10.0,39,0.00,,,0.00,meteohub,2013-08-02 00:14:00,
2013-08-01 19:16:00,96.3,66.6,-100.00,East,101,4.0,10.0,38,0.00,,,0.00,meteohub,2013-08-02 00:16:00,
2013-08-01 19:17:00,96.3,67.3,-100.00,East,101,4.0,10.0,39,0.00,,,0.00,meteohub,2013-08-02 00:17:00,
2013-08-01 19:19:00,96.1,67.1,-100.00,ESE,103,6.0,10.0,39,0.00,,,0.00,meteohub,2013-08-02 00:19:00,
2013-08-01 19:20:00,96.1,66.4,-100.00,ESE,105,7.0,10.0,38,0.00,,,0.00,meteohub,2013-08-02 00:20:00,
2013-08-01 19:22:00,96.1,67.1,-100.00,East,98,6.0,10.0,39,0.00,,,0.00,meteohub,2013-08-02 00:22:00,
2013-08-01 19:25:00,95.9,66.9,-100.00,East,96,6.0,12.0,39,0.00,,,0.00,meteohub,2013-08-02 00:25:00,
2013-08-01 19:27:00,95.9,66.9,-100.00,East,97,6.0,12.0,39,0.00,,,0.00,meteohub,2013-08-02 00:27:00,
2013-08-01 19:31:00,95.5,66.6,-100.00,East,95,3.0,12.0,39,0.00,,,0.00,meteohub,2013-08-02 00:31:00,
2013-08-01 19:32:00,95.5,67.3,-100.00,ESE,109,5.0,12.0,40,0.00,,,0.00,meteohub,2013-08-02 00:32:00,
2013-08-01 19:33:00,95.5,67.3,-100.00,ESE,112,6.0,12.0,40,0.00,,,0.00,meteohub,2013-08-02 00:33:00,
2013-08-01 19:36:00,95.4,67.3,-100.00,ESE,110,4.0,11.0,40,0.00,,,0.00,meteohub,2013-08-02 00:36:00,
2013-08-01 19:37:00,95.4,67.3,-100.00,ESE,109,4.0,11.0,40,0.00,,,0.00,meteohub,2013-08-02 00:37:00,
2013-08-01 19:38:00,95.2,67.1,-100.00,ESE,109,5.0,11.0,40,0.00,,,0.00,meteohub,2013-08-02 00:38:00,
2013-08-01 19:39:00,95.2,67.1,-100.00,ESE,105,5.0,11.0,40,0.00,,,0.00,meteohub,2013-08-02 00:39:00,
2013-08-01 19:42:00,95.2,67.8,-100.00,ESE,108,5.0,11.0,41,0.00,,,0.00,meteohub,2013-08-02 00:42:00,
2013-08-01 19:43:00,94.8,66.7,-100.00,ESE,110,4.0,11.0,40,0.00,,,0.00,meteohub,2013-08-02 00:43:00,
2013-08-01 19:44:00,94.8,66.7,-100.00,ESE,107,4.0,11.0,40,0.00,,,0.00,meteohub,2013-08-02 00:44:00,
2013-08-01 19:47:00,94.6,65.8,-100.00,ESE,103,5.0,11.0,39,0.00,,,0.00,meteohub,2013-08-02 00:47:00,
2013-08-01 19:48:00,94.6,65.8,-100.00,ESE,103,7.0,11.0,39,0.00,,,0.00,meteohub,2013-08-02 00:48:00,
2013-08-01 19:49:00,94.6,65.8,-100.00,ESE,108,9.0,11.0,39,0.00,,,0.00,meteohub,2013-08-02 00:49:00,
2013-08-01 19:50:00,94.6,65.8,-100.00,ESE,105,6.0,11.0,39,0.00,,,0.00,meteohub,2013-08-02 00:50:00,
2013-08-01 19:53:00,94.5,65.7,-100.00,ESE,105,6.0,11.0,39,0.00,,,0.00,meteohub,2013-08-02 00:53:00,
2013-08-01 19:54:00,94.5,65.7,-100.00,East,96,6.0,11.0,39,0.00,,,0.00,meteohub,2013-08-02 00:54:00,
2013-08-01 19:55:00,94.3,65.5,-100.00,East,96,5.0,11.0,39,0.00,,,0.00,meteohub,2013-08-02 00:55:00,
2013-08-01 19:56:00,94.3,65.5,-100.00,East,95,5.0,11.0,39,0.00,,,0.00,meteohub,2013-08-02 00:56:00,
2013-08-01 19:59:00,93.9,65.8,-100.00,ESE,104,6.0,11.0,40,0.00,,,0.00,meteohub,2013-08-02 00:59:00,
2013-08-01 20:00:00,93.9,65.8,-100.00,ESE,105,5.0,11.0,40,0.00,,,0.00,meteohub,2013-08-02 01:00:00,
2013-08-01 20:02:00,93.7,65.8,-100.00,East,101,9.0,11.0,40,0.00,,,0.00,meteohub,2013-08-02 01:02:00,
2013-08-01 20:05:00,93.7,65.8,-100.00,ESE,108,4.0,11.0,40,0.00,,,0.00,meteohub,2013-08-02 01:05:00,
2013-08-01 20:07:00,93.6,65.7,-100.00,ESE,107,4.0,12.0,40,0.00,,,0.00,meteohub,2013-08-02 01:07:00,
2013-08-01 20:10:00,93.4,66.2,-100.00,ESE,103,3.0,12.0,41,0.00,,,0.00,meteohub,2013-08-02 01:10:00,
2013-08-01 20:11:00,93.4,66.2,-100.00,East,101,4.0,12.0,41,0.00,,,0.00,meteohub,2013-08-02 01:11:00,
2013-08-01 20:12:00,93.4,66.2,-100.00,East,101,2.0,12.0,41,0.00,,,0.00,meteohub,2013-08-02 01:12:00,
2013-08-01 20:15:00,93.2,66.7,-100.00,East,98,2.0,12.0,42,0.00,,,0.00,meteohub,2013-08-02 01:15:00,
2013-08-01 20:17:00,93.2,66.7,-100.00,East,98,5.0,12.0,42,0.00,,,0.00,meteohub,2013-08-02 01:17:00,
2013-08-01 20:18:00,93.2,66.7,-100.00,East,98,4.0,12.0,42,0.00,,,0.00,meteohub,2013-08-02 01:18:00,
2013-08-01 20:21:00,92.8,66.4,-100.00,East,98,5.0,8.0,42,0.00,,,0.00,meteohub,2013-08-02 01:21:00,
2013-08-01 20:22:00,92.8,66.4,-100.00,East,100,3.0,8.0,42,0.00,,,0.00,meteohub,2013-08-02 01:22:00,
2013-08-01 20:23:00,92.7,66.2,-100.00,ESE,103,7.0,8.0,42,0.00,,,0.00,meteohub,2013-08-02 01:23:00,
2013-08-01 20:24:00,92.7,66.2,-100.00,ESE,103,3.0,8.0,42,0.00,,,0.00,meteohub,2013-08-02 01:24:00,
2013-08-01 20:26:00,92.7,66.9,-100.00,ESE,103,2.0,7.0,43,0.00,,,0.00,meteohub,2013-08-02 01:26:00,
2013-08-01 20:28:00,92.5,66.7,-100.00,ESE,103,5.0,7.0,43,0.00,,,0.00,meteohub,2013-08-02 01:28:00,
2013-08-01 20:29:00,92.5,66.7,-100.00,ESE,102,3.0,7.0,43,0.00,,,0.00,meteohub,2013-08-02 01:29:00,
2013-08-01 20:32:00,92.5,66.7,-100.00,ESE,102,4.0,7.0,43,0.00,,,0.00,meteohub,2013-08-02 01:32:00,
2013-08-01 20:35:00,92.3,67.3,-100.00,East,101,4.0,7.0,44,0.00,,,0.00,meteohub,2013-08-02 01:35:00,
2013-08-01 20:36:00,92.1,67.1,-100.00,East,101,4.0,7.0,44,0.00,,,0.00,meteohub,2013-08-02 01:36:00,
2013-08-01 20:37:00,92.1,67.1,-100.00,East,101,3.0,7.0,44,0.00,,,0.00,meteohub,2013-08-02 01:37:00,
2013-08-01 20:38:00,92.1,67.1,-100.00,East,101,3.0,7.0,44,0.00,,,0.00,meteohub,2013-08-02 01:38:00,
2013-08-01 20:40:00,91.8,66.7,-100.00,East,101,4.0,6.0,44,0.00,,,0.00,meteohub,2013-08-02 01:40:00,
2013-08-01 20:42:00,91.8,66.7,-100.00,East,101,3.0,6.0,44,0.00,,,0.00,meteohub,2013-08-02 01:42:00,
2013-08-01 20:43:00,91.8,67.5,-100.00,East,101,2.0,6.0,45,0.00,,,0.00,meteohub,2013-08-02 01:43:00,
2013-08-01 20:45:00,91.6,67.3,-100.00,East,101,2.0,6.0,45,0.00,,,0.00,meteohub,2013-08-02 01:45:00,
2013-08-01 20:47:00,91.6,67.3,-100.00,East,101,3.0,6.0,45,0.00,,,0.00,meteohub,2013-08-02 01:47:00,
2013-08-01 20:49:00,91.4,67.1,-100.00,East,101,3.0,6.0,45,0.00,,,0.00,meteohub,2013-08-02 01:49:00,
2013-08-01 20:52:00,91.4,67.6,-100.00,East,101,3.0,5.0,46,0.00,,,0.00,meteohub,2013-08-02 01:52:00,
2013-08-01 20:57:00,91.0,67.5,-100.00,East,101,5.0,5.0,46,0.00,,,0.00,meteohub,2013-08-02 01:57:00,
2013-08-01 20:59:00,91.0,67.5,-100.00,ESE,107,5.0,5.0,46,0.00,,,0.00,meteohub,2013-08-02 01:59:00,
2013-08-01 21:03:00,91.0,68.0,-100.00,East,98,4.0,9.0,47,0.00,,,0.00,meteohub,2013-08-02 02:03:00,
2013-08-01 21:04:00,90.7,67.6,-100.00,East,98,4.0,9.0,47,0.00,,,0.00,meteohub,2013-08-02 02:04:00,
2013-08-01 21:05:00,90.7,68.4,-100.00,East,98,6.0,9.0,48,0.00,,,0.00,meteohub,2013-08-02 02:05:00,
2013-08-01 21:08:00,90.3,68.5,-100.00,East,94,3.0,10.0,49,0.00,,,0.00,meteohub,2013-08-02 02:08:00,
2013-08-01 21:12:00,90.1,68.9,-100.00,East,93,3.0,11.0,50,0.00,,,0.00,meteohub,2013-08-02 02:12:00,
2013-08-01 21:13:00,89.8,69.3,-100.00,East,97,10.0,11.0,51,0.00,,,0.00,meteohub,2013-08-02 02:13:00,
2013-08-01 21:17:00,89.2,69.3,-100.00,ESE,103,3.0,11.0,52,0.00,,,0.00,meteohub,2013-08-02 02:17:00,
2013-08-01 21:18:00,89.1,69.1,-100.00,East,100,6.0,11.0,52,0.00,,,0.00,meteohub,2013-08-02 02:18:00,
2013-08-01 21:19:00,89.1,69.1,-100.00,SE,126,14.0,14.0,52,0.00,,,0.00,meteohub,2013-08-02 02:19:00,
2013-08-01 21:21:00,88.9,68.9,-100.00,ESE,110,5.0,11.0,52,0.00,,,0.00,meteohub,2013-08-02 02:21:00,
2013-08-01 21:24:00,88.5,68.7,-100.00,East,101,9.0,11.0,52,0.00,,,0.00,meteohub,2013-08-02 02:24:00,
2013-08-01 21:25:00,88.3,68.5,-100.00,ESE,104,4.0,11.0,52,0.00,,,0.00,meteohub,2013-08-02 02:25:00,
2013-08-01 21:27:00,88.2,68.9,-100.00,ESE,109,10.0,14.0,53,0.00,,,0.00,meteohub,2013-08-02 02:27:00,
2013-08-01 21:29:00,88.0,68.7,-100.00,ESE,107,7.0,14.0,53,0.00,,,0.00,meteohub,2013-08-02 02:29:00,
2013-08-01 21:30:00,88.0,68.7,-100.00,ESE,109,6.0,14.0,53,0.00,,,0.00,meteohub,2013-08-02 02:30:00,
2013-08-01 21:31:00,88.0,68.7,-100.00,ESE,111,9.0,14.0,53,0.00,,,0.00,meteohub,2013-08-02 02:31:00,
2013-08-01 21:33:00,87.8,69.1,-100.00,ESE,106,6.0,14.0,54,0.00,,,0.00,meteohub,2013-08-02 02:33:00,
2013-08-01 21:35:00,87.6,69.4,-100.00,ESE,104,5.0,14.0,55,0.00,,,0.00,meteohub,2013-08-02 02:35:00,
2013-08-01 21:37:00,87.4,69.3,-100.00,ESE,103,5.0,14.0,55,0.00,,,0.00,meteohub,2013-08-02 02:37:00,
2013-08-01 21:41:00,87.3,69.1,-100.00,East,100,5.0,14.0,55,0.00,,,0.00,meteohub,2013-08-02 02:41:00,
2013-08-01 21:42:00,87.3,69.6,-100.00,East,101,6.0,14.0,56,0.00,,,0.00,meteohub,2013-08-02 02:42:00,
2013-08-01 21:44:00,87.1,69.4,-100.00,ESE,103,6.0,14.0,56,0.00,,,0.00,meteohub,2013-08-02 02:44:00,
2013-08-01 21:47:00,86.7,69.1,-100.00,ESE,103,4.0,14.0,56,0.00,,,0.00,meteohub,2013-08-02 02:47:00,
2013-08-01 21:48:00,86.7,69.1,-100.00,ESE,117,7.0,14.0,56,0.00,,,0.00,meteohub,2013-08-02 02:48:00,
2013-08-01 21:50:00,86.5,68.9,-100.00,ESE,116,4.0,14.0,56,0.00,,,0.00,meteohub,2013-08-02 02:50:00,
2013-08-01 21:52:00,86.5,69.4,-100.00,ESE,111,5.0,11.0,57,0.00,,,0.00,meteohub,2013-08-02 02:52:00,
2013-08-01 21:53:00,86.4,69.3,-100.00,ESE,110,4.0,11.0,57,0.00,,,0.00,meteohub,2013-08-02 02:53:00,
2013-08-01 21:54:00,86.4,69.3,-100.00,ESE,111,7.0,11.0,57,0.00,,,0.00,meteohub,2013-08-02 02:54:00,
2013-08-01 21:55:00,86.4,69.3,-100.00,ESE,112,6.0,11.0,57,0.00,,,0.00,meteohub,2013-08-02 02:55:00,
2013-08-01 21:58:00,86.2,69.6,-100.00,ESE,105,4.0,11.0,58,0.00,,,0.00,meteohub,2013-08-02 02:58:00,
2013-08-01 22:00:00,85.8,69.3,-100.00,ESE,104,6.0,11.0,58,0.00,,,0.00,meteohub,2013-08-02 03:00:00,
2013-08-01 22:02:00,85.8,69.3,-100.00,ESE,103,5.0,11.0,58,0.00,,,0.00,meteohub,2013-08-02 03:02:00,
2013-08-01 22:04:00,85.8,69.3,-100.00,East,101,3.0,11.0,58,0.00,,,0.00,meteohub,2013-08-02 03:04:00,
2013-08-01 22:07:00,85.6,69.6,-100.00,ESE,107,5.0,9.0,59,0.00,,,0.00,meteohub,2013-08-02 03:07:00,
2013-08-01 22:08:00,85.6,69.6,-100.00,ESE,110,5.0,9.0,59,0.00,,,0.00,meteohub,2013-08-02 03:08:00,
2013-08-01 22:10:00,85.5,70.0,-100.00,ESE,111,5.0,9.0,60,0.00,,,0.00,meteohub,2013-08-02 03:10:00,
2013-08-01 22:12:00,85.5,70.0,-100.00,ESE,111,4.0,9.0,60,0.00,,,0.00,meteohub,2013-08-02 03:12:00,
2013-08-01 22:13:00,85.5,70.0,-100.00,ESE,112,6.0,9.0,60,0.00,,,0.00,meteohub,2013-08-02 03:13:00,
2013-08-01 22:14:00,85.3,69.8,-100.00,ESE,115,4.0,9.0,60,0.00,,,0.00,meteohub,2013-08-02 03:14:00,
2013-08-01 22:16:00,85.3,69.8,-100.00,ESE,115,4.0,9.0,60,0.00,,,0.00,meteohub,2013-08-02 03:16:00,
2013-08-01 22:17:00,85.1,69.6,-100.00,ESE,117,6.0,9.0,60,0.00,,,0.00,meteohub,2013-08-02 03:17:00,
2013-08-01 22:19:00,85.1,69.6,-100.00,ESE,118,4.0,9.0,60,0.00,,,0.00,meteohub,2013-08-02 03:19:00,
2013-08-01 22:22:00,85.1,69.6,-100.00,ESE,118,4.0,9.0,60,0.00,,,0.00,meteohub,2013-08-02 03:22:00,
2013-08-01 22:23:00,85.1,69.6,-100.00,ESE,118,3.0,9.0,60,0.00,,,0.00,meteohub,2013-08-02 03:23:00,
2013-08-01 22:24:00,84.9,69.4,-100.00,ESE,119,4.0,9.0,60,0.00,,,0.00,meteohub,2013-08-02 03:24:00,
2013-08-01 22:28:00,84.9,69.4,-100.00,ESE,120,4.0,9.0,60,0.00,,,0.00,meteohub,2013-08-02 03:28:00,
2013-08-01 22:29:00,84.7,69.3,-100.00,ESE,120,3.0,9.0,60,0.00,,,0.00,meteohub,2013-08-02 03:29:00,
2013-08-01 22:33:00,84.7,69.8,-100.00,ESE,119,4.0,10.0,61,0.00,,,0.00,meteohub,2013-08-02 03:33:00,
2013-08-01 22:36:00,84.6,69.6,-100.00,ESE,119,5.0,10.0,61,0.00,,,0.00,meteohub,2013-08-02 03:36:00,
2013-08-01 22:38:00,84.6,69.6,-100.00,ESE,119,3.0,10.0,61,0.00,,,0.00,meteohub,2013-08-02 03:38:00,
2013-08-01 22:39:00,84.6,69.6,-100.00,ESE,119,6.0,10.0,61,0.00,,,0.00,meteohub,2013-08-02 03:39:00,
2013-08-01 22:45:00,84.4,69.4,-100.00,ESE,119,6.0,9.0,61,0.00,,,0.00,meteohub,2013-08-02 03:45:00,
2013-08-01 22:46:00,84.0,69.1,-100.00,ESE,120,4.0,9.0,61,0.00,,,0.00,meteohub,2013-08-02 03:46:00,
2013-08-01 22:47:00,84.0,69.1,-100.00,ESE,120,3.0,9.0,61,0.00,,,0.00,meteohub,2013-08-02 03:47:00,
2013-08-01 22:48:00,84.0,69.1,-100.00,ESE,119,3.0,9.0,61,0.00,,,0.00,meteohub,2013-08-02 03:48:00,
2013-08-01 22:50:00,84.0,69.6,-100.00,ESE,119,4.0,9.0,62,0.00,,,0.00,meteohub,2013-08-02 03:50:00,
2013-08-01 22:54:00,84.0,69.6,-100.00,ESE,120,3.0,9.0,62,0.00,,,0.00,meteohub,2013-08-02 03:54:00,
2013-08-01 22:57:00,83.8,70.0,-100.00,ESE,120,3.0,9.0,63,0.00,,,0.00,meteohub,2013-08-02 03:57:00,
2013-08-01 22:58:00,83.8,70.0,-100.00,ESE,120,3.0,9.0,63,0.00,,,0.00,meteohub,2013-08-02 03:58:00,
2013-08-01 22:59:00,83.8,70.0,-100.00,ESE,121,6.0,9.0,63,0.00,,,0.00,meteohub,2013-08-02 03:59:00,
2013-08-01 23:01:00,83.7,69.8,-100.00,ESE,121,4.0,6.0,63,0.00,,,0.00,meteohub,2013-08-02 04:01:00,
2013-08-01 23:02:00,83.7,69.8,-100.00,ESE,121,4.0,6.0,63,0.00,,,0.00,meteohub,2013-08-02 04:02:00,
2013-08-01 23:06:00,83.5,69.6,-100.00,ESE,121,3.0,6.0,63,0.00,,,0.00,meteohub,2013-08-02 04:06:00,
2013-08-01 23:07:00,83.5,69.6,-100.00,ESE,121,4.0,6.0,63,0.00,,,0.00,meteohub,2013-08-02 04:07:00,
2013-08-01 23:08:00,83.5,69.6,-100.00,ESE,121,5.0,6.0,63,0.00,,,0.00,meteohub,2013-08-02 04:08:00,
2013-08-01 23:12:00,83.1,69.6,-100.00,ESE,121,2.0,6.0,64,0.00,,,0.00,meteohub,2013-08-02 04:12:00,
2013-08-01 23:13:00,83.1,69.6,-100.00,ESE,121,4.0,6.0,64,0.00,,,0.00,meteohub,2013-08-02 04:13:00,
2013-08-01 23:14:00,83.1,69.6,-100.00,ESE,122,4.0,6.0,64,0.00,,,0.00,meteohub,2013-08-02 04:14:00,
2013-08-01 23:16:00,83.1,69.6,-100.00,ESE,122,4.0,6.0,64,0.00,,,0.00,meteohub,2013-08-02 04:16:00,
2013-08-01 23:17:00,83.1,69.6,-100.00,SE,126,4.0,6.0,64,0.00,,,0.00,meteohub,2013-08-02 04:17:00,
2013-08-01 23:18:00,83.1,69.6,-100.00,SE,126,3.0,6.0,64,0.00,,,0.00,meteohub,2013-08-02 04:18:00,
2013-08-01 23:20:00,83.1,69.6,-100.00,SE,126,4.0,9.0,64,0.00,,,0.00,meteohub,2013-08-02 04:20:00,
2013-08-01 23:22:00,83.1,69.6,-100.00,SE,127,5.0,9.0,64,0.00,,,0.00,meteohub,2013-08-02 04:22:00,
2013-08-01 23:23:00,83.1,69.6,-100.00,SE,128,1.0,9.0,64,0.00,,,0.00,meteohub,2013-08-02 04:23:00,
2013-08-01 23:24:00,83.1,69.6,-100.00,SE,128,4.0,9.0,64,0.00,,,0.00,meteohub,2013-08-02 04:24:00,
2013-08-01 23:26:00,82.9,69.4,-100.00,SE,129,4.0,9.0,64,0.00,,,0.00,meteohub,2013-08-02 04:26:00,
2013-08-01 23:27:00,82.9,69.4,-100.00,SE,130,4.0,9.0,64,0.00,,,0.00,meteohub,2013-08-02 04:27:00,
2013-08-01 23:28:00,82.9,69.4,-100.00,SE,132,3.0,9.0,64,0.00,,,0.00,meteohub,2013-08-02 04:28:00,
2013-08-01 23:29:00,82.9,69.4,-100.00,SE,132,4.0,9.0,64,0.00,,,0.00,meteohub,2013-08-02 04:29:00,
2013-08-01 23:31:00,82.9,69.4,-100.00,SE,132,1.0,9.0,64,0.00,,,0.00,meteohub,2013-08-02 04:31:00,
2013-08-01 23:32:00,82.9,69.4,-100.00,SE,134,3.0,9.0,64,0.00,,,0.00,meteohub,2013-08-02 04:32:00,
2013-08-01 23:35:00,82.9,69.4,-100.00,SE,134,4.0,9.0,64,0.00,,,0.00,meteohub,2013-08-02 04:35:00,
2013-08-01 23:36:00,82.9,70.0,-100.00,SE,134,5.0,7.0,65,0.00,,,0.00,meteohub,2013-08-02 04:36:00,
2013-08-01 23:37:00,82.8,69.8,-100.00,SE,132,7.0,7.0,65,0.00,,,0.00,meteohub,2013-08-02 04:37:00,
2013-08-01 23:42:00,82.6,69.6,-100.00,SE,132,3.0,9.0,65,0.00,,,0.00,meteohub,2013-08-02 04:42:00,
2013-08-01 23:43:00,82.6,69.6,-100.00,SE,132,4.0,9.0,65,0.00,,,0.00,meteohub,2013-08-02 04:43:00,
2013-08-01 23:45:00,82.6,70.0,-100.00,SE,132,3.0,9.0,66,0.00,,,0.00,meteohub,2013-08-02 04:45:00,
2013-08-01 23:47:00,82.4,70.0,-100.00,SE,132,4.0,9.0,66,0.00,,,0.00,meteohub,2013-08-02 04:47:00,
2013-08-01 23:48:00,82.4,70.0,-100.00,SE,132,3.0,9.0,66,0.00,,,0.00,meteohub,2013-08-02 04:48:00,
2013-08-01 23:49:00,82.4,70.0,-100.00,SE,132,3.0,9.0,66,0.00,,,0.00,meteohub,2013-08-02 04:49:00,
2013-08-01 23:50:00,82.2,69.8,-100.00,SE,132,4.0,9.0,66,0.00,,,0.00,meteohub,2013-08-02 04:50:00,
2013-08-01 23:53:00,82.2,69.8,-100.00,SE,132,3.0,9.0,66,0.00,,,0.00,meteohub,2013-08-02 04:53:00,
2013-08-01 23:54:00,82.2,70.2,-100.00,SE,132,2.0,9.0,67,0.00,,,0.00,meteohub,2013-08-02 04:54:00,
2013-08-01 23:56:00,82.0,70.0,-100.00,SE,132,3.0,9.0,67,0.00,,,0.00,meteohub,2013-08-02 04:56:00,
2013-08-01 23:58:00,82.0,70.0,-100.00,SE,132,3.0,9.0,67,0.00,,,0.00,meteohub,2013-08-02 04:58:00,
2013-08-01 23:59:00,82.0,70.0,-100.00,SE,132,3.0,9.0,67,0.00,,,0.00,meteohub,2013-08-02 04:59:00,